Weather History for Laramie, WY

Change the Weather History Date:

Saturday, November 24, 2012

  Actual Average Record
Temperature  
Mean Temperature 44 °F 25 °F  
Max Temperature 55 °F 37 °F 58 °F (1990)
Min Temperature 33 °F 14 °F -25 °F (1993)
Degree Days  
Heating Degree Days 21 40  
Month to date heating degree days 645 824  
Since 1 July heating degree days 1710 2067  
Cooling Degree Days 0 0  
Month to date cooling degree days 0 0  
Year to date cooling degree days 211 67  
Moisture  
Dew Point 11 °F    
Average Humidity 24    
Maximum Humidity 35    
Minimum Humidity 12    
Precipitation  
Precipitation 0.00 in 0.01 in 0.09 in (2010)
Month to date precipitation 0.16 0.45  
Year to date precipitation 6.06 10.51  
Sea Level Pressure  
Sea Level Pressure 29.95 in    
Wind  
Wind Speed 22 mph (WSW)    
Max Wind Speed 44 mph    
Max Gust Speed 51 mph    
Visibility 10 miles    
Events      
T = Trace of Precipitation, MM = Missing Value Source: NWS Daily Summary

Daily Weather History Graph

Daily Weather History Graph

Search for Another Location

Airport:

Trip Planner

Search our weather history database for the weather conditions in past years. The results will help you decide how hot, cold, wet, or windy it might be!

Date:

Astronomy

Nov. 24, 2012 Rise Set
Actual Time 7:02 AM MST 4:36 PM MST
Civil Twilight 6:31 AM MST 5:07 PM MST
Nautical Twilight 5:57 AM MST 5:41 PM MST
Astronomical Twilight 5:24 AM MST 6:14 PM MST
Moon 2:24 PM MST (11/24) 3:19 AM MST (11/24)
Length of Visible Light 10h 35m
Length of Day
9h 34m
Waxing Gibbous, 87% of the Moon is Illuminated
Nov 24
Waxing Gibbous
Nov 28
Full
Dec 6
Last Quarter
Dec 13
New
Dec 19
First Quarter

Hourly Weather History & Observations

Time (MST) Temp. Windchill Dew Point Humidity Pressure Visibility Wind Dir Wind Speed Gust Speed Precip Events Conditions
12:53 AM 37.0 °F 31.6 °F 12.0 °F 36% 30.11 in 10.0 mi West 6.9 mph - N/A   Clear
1:53 AM 41.0 °F 33.9 °F 12.9 °F 32% 30.06 in 10.0 mi WSW 12.7 mph 18.4 mph N/A   Clear
2:53 AM 39.9 °F 30.2 °F 12.9 °F 33% 30.06 in 10.0 mi SW 20.7 mph 28.8 mph N/A   Clear
3:53 AM 37.9 °F 29.6 °F 12.9 °F 36% 30.08 in 10.0 mi SW 13.8 mph - N/A   Clear
4:53 AM 39.0 °F 30.3 °F 12.9 °F 34% 30.09 in 10.0 mi SW 16.1 mph - N/A   Clear
5:53 AM 43.0 °F 37.2 °F 12.9 °F 30% 30.06 in 10.0 mi South 10.4 mph 24.2 mph N/A   Clear
6:53 AM 43.0 °F 36.8 °F 12.9 °F 30% 30.06 in 10.0 mi SSW 11.5 mph 21.9 mph N/A   Clear
7:53 AM 42.1 °F 34.9 °F 12.9 °F 31% 30.09 in 10.0 mi WSW 13.8 mph - N/A   Clear
8:53 AM 46.9 °F - 12.9 °F 25% 30.02 in 10.0 mi West 33.4 mph 41.4 mph N/A   Clear
9:53 AM 48.9 °F - 12.9 °F 24% 29.96 in 10.0 mi West 41.4 mph 50.6 mph N/A   Clear
10:53 AM 52.0 °F - 12.9 °F 21% 29.95 in 10.0 mi WSW 29.9 mph 40.3 mph N/A   Clear
11:53 AM 52.0 °F - 12.0 °F 20% 29.94 in 10.0 mi WSW 20.7 mph 28.8 mph N/A   Clear
12:53 PM 51.1 °F - 9.0 °F 18% 29.91 in 10.0 mi West 27.6 mph 35.7 mph N/A   Clear
1:53 PM 52.0 °F - 6.1 °F 16% 29.88 in 10.0 mi West 20.7 mph 28.8 mph N/A   Clear
2:53 PM 54.0 °F - 1.9 °F 12% 29.88 in 10.0 mi West 21.9 mph 32.2 mph N/A   Clear
3:53 PM 51.1 °F - 3.0 °F 14% 29.88 in 10.0 mi West 21.9 mph 34.5 mph N/A   Clear
4:53 PM 44.1 °F 34.6 °F 7.0 °F 22% 29.91 in 10.0 mi West 26.5 mph - N/A   Clear
5:53 PM 45.0 °F 35.6 °F 8.1 °F 22% 29.87 in - West 27.6 mph 36.8 mph N/A   Clear
6:53 PM 42.1 °F 31.3 °F 12.0 °F 29% 29.87 in 10.0 mi West 29.9 mph 35.7 mph N/A   Clear
7:53 PM 42.1 °F 31.3 °F 12.0 °F 29% 29.88 in 10.0 mi West 29.9 mph - N/A   Clear
8:53 PM 43.0 °F 33.5 °F 12.0 °F 28% 29.85 in 10.0 mi West 24.2 mph 36.8 mph N/A   Clear
9:53 PM 43.0 °F 32.7 °F 10.9 °F 27% 29.82 in 10.0 mi WSW 28.8 mph 38.0 mph N/A   Scattered Clouds
10:53 PM 39.0 °F 29.0 °F 10.9 °F 32% 29.81 in 10.0 mi West 20.7 mph 29.9 mph N/A   Clear
11:53 PM 41.0 °F 31.9 °F 10.0 °F 28% 29.81 in 10.0 mi West 19.6 mph - N/A   Clear